Location: Buchberg
(46.9333°N, 15.8500°E)
Time: 18:47:43
(UTC+00:00)

EP 1 - Pass Details

Date: 14 July 2020
Orbit: 314 x 1668 km, 63.3° (Epoch: 25 August)

Event Time Altitude Azimuth Distance (km) Brightness Sun altitude
Exits shadow 00:56:57 58° 250° (WSW) 408 4.4 -16.7°
Maximum altitude 00:57:21 73° 310° (NW) 360 4.3 -16.7°
Drops below altitude 10° 00:59:57 10° 36° (NE) 1,233 8.4 -16.5°
Sets 01:01:49 0° 38° (NE) 2,059 10.0 -16.3°
